User: anonymous   Login
Location: Fountain Hills
(33.6120°N, 111.7170°W)
Time: 13:15:49
(UTC-07:00)
Language:

Hamsat - Orbit

View from above orbital plane
View from above orbital plane
View from above satellite
View from above satellite

Ground track
Ground track

The orbit data is extracted from the following two-line orbital elements,

1 28650U 05017B   18048.87840728  .00000294  00000-0  37002-4 0  9990
2 28650  97.6844  20.3668 0024463  40.2839 320.0185 14.88866062692725
Epoch (UTC): 17 February 2018 21:04:54
Eccentricity: 0.0024463
inclination: 97.6844°
perigee height: 584 km
apogee height: 618 km
right ascension of ascending node: 20.3668°
argument of perigee: 40.2839°
revolutions per day: 14.88866062
mean anomaly at epoch: 320.0185°
orbit number at epoch: 69272

The dashed part of the orbit path shows where the satellite is in the earth's shadow,  

DLR